Location: Eldred Sherwood Park Lake Dam
(42.9416°N, 93.5655°W)
Time: 23:23:58
(UTC+00:00)

Transit 4A - Pass Details

Date: 21 November 2024
Orbit: 862 x 980 km, 66.8° (Epoch: 06 December)

Event Time Altitude Azimuth Distance (km) Brightness Sun altitude
Rises 00:34:41 0° 335° (NNW) 3,659 11.2 -19.6°
Reaches altitude 10° 00:38:14 10° 354° (N) 2,724 10.3 -20.3°
Enters shadow 00:41:39 17° 27° (NNE) 2,246 9.6 -20.9°
